Location: Allie Creek
(37.5926°N, 89.8526°W)
Time: 23:55:34
(UTC+00:00)

SL-16 R/B - Pass Details

Date: 01 May 2024
Orbit: 841 x 845 km, 71.0° (Epoch: 28 May)

Event Time Altitude Azimuth Distance (km) Brightness Sun altitude
Rises 01:22:52 0° 158° (SSE) 3,383 4.9 -7.0°
Reaches altitude 10° 01:26:03 10° 140° (SE) 2,454 4.1 -7.5°
Maximum altitude 01:29:43 18° 99° (E) 1,957 3.5 -8.2°
Drops below altitude 10° 01:33:23 10° 58° (ENE) 2,466 4.3 -8.8°
Sets 01:36:35 0° 41° (NE) 3,407 5.2 -9.4°
